User: anonymous   Login
Location: Unspecified
(0.0000°N, 0.0000°E)
Time: 20:40:10
(UTC+00:00)
Language:

Gonets-D1 - Orbit

View from above orbital plane
View from above orbital plane
View from above satellite
View from above satellite

Ground track
Ground track

The orbit data is extracted from the following two-line orbital elements,

1 23787U 96009A   17172.69575565 +.00000046 +00000-0 +19620-3 0  9998
2 23787 082.5782 240.6120 0009445 306.1616 053.8602 12.64031522984585
Epoch (UTC): 21 June 2017 16:41:53
Eccentricity: 0.0009445
inclination: 82.5782°
perigee height: 1399 km
apogee height: 1413 km
right ascension of ascending node: 240.6120°
argument of perigee: 306.1616°
revolutions per day: 12.64031522
mean anomaly at epoch: 53.8602°
orbit number at epoch: 98458

The dashed part of the orbit path shows where the satellite is in the earth's shadow,  

DLR